MEASAT-3B

Last updated on Thu Oct 30 2025 00:02:49 GMT+0000 (Coordinated Universal Time)

1 40147U 14054B 25302.41786410 -.00000232 00000+0 00000+0 0 9999 2 40147 0.0655 59.3453 0000268 205.9824 14.6304 1.00271702 40595
UTC large
Height (km)
Speed (km/s)
/
Latitude / Longitude
Inclination (degrees)
Orbital Period (minutes)
Azimuth
Elevation
Range (km)
Doppler Factor

Next 0 passes for location: London (51.5072 / 0.1276)

Sorry there are no passes over London.